Regional Weather Roundup
Issued by NWS

Home | Current Version | Previous Version | Graphics & Text | Print | Product List | Glossary On
Versions: 1 2 3 4 5 6 7 8 9 10 11 12 13 14 15 16 17 18 19 20 21 22 23 24 25 26 27 28 29 30 31 32 33 34 35 36 37 38 39 40 41 42 43 44 45 46 47 48 49 50
000
ASUS45 KTFX 040810
RWRMT
MONTANA REGIONAL WEATHER ROUNDUP
NATIONAL WEATHER SERVICE GREAT FALLS MT
200 AM MDT SAT JUL 04 2015

NOTE: "FAIR" INDICATES FEW OR NO CLOUDS BELOW 12000 FEET WITH NO
SIGNIFICANT WEATHER AND/OR OBSTRUCTIONS TO VISIBILITY.

MTZ001>007-043-040900-
WEST OF THE DIVIDE

CITY           SKY/WX    TMP DP  RH WIND       PRES   REMARKS
KALISPELL      SUNNY     59  47  64 W3        29.82S
MISSOULA       CLEAR     68  44  42 CALM      29.88S
BUTTE          CLEAR     58  39  49 SE5       30.03S
MULLAN PASS    CLEAR     70  34  26 W5        30.07F
DEER LODGE       N/A     61  43  51 CALM      30.01R
EUREKA           N/A     68  46  45 CALM      29.79S
HAMILTON         N/A     66  46  48 S6        29.91S
PLAINS           N/A     62  46  55 CALM      29.86R
RONAN            N/A     60  52  75 W1        29.91S
$$

MTZ008-052>055-040900-
SOUTHWEST MONTANA

CITY           SKY/WX    TMP DP  RH WIND       PRES   REMARKS
BOZEMAN        CLEAR     59  47  64 SE9       29.93S
DILLON         CLEAR     60  37  42 S5        29.99S
W YELLOWSTONE  CLEAR     46  43  87 CALM      30.11R
THREE FORKS      N/A     61  61 100 CALM      29.92F
$$

MTZ009-010-012-014-046-048-049-054-040900-
EAST SLOPES AND CENTRAL MONTANA

CITY           SKY/WX    TMP DP  RH WIND       PRES   REMARKS
CUT BANK       CLEAR     57  48  72 W6        29.84F
GREAT FALLS    CLEAR     65  45  48 SW9       29.83F
MALMSTROM AFB  CLEAR     72  49  45 SW10      29.82F
HELENA         CLEAR     75  40  28 W10       29.88F
CONRAD           N/A     55  54  97 N3        29.87F
$$

MTZ011-013-016-021-045-047-050-051-040900-
NORTH CENTRAL MONTANA

CITY           SKY/WX    TMP DP  RH WIND       PRES   REMARKS
HAVRE          CLEAR     68  47  46 VRB3      29.74F
LEWISTOWN      CLEAR     66  51  58 E9        29.86F
CHINOOK          N/A     82  46  28 S7        29.74R
FORT BENTON      N/A     70  50  49 S3        29.78S
$$

MTZ017>020-022>027-061-062-040900-
NORTHEAST MONTANA

CITY           SKY/WX    TMP DP  RH WIND       PRES   REMARKS
GLASGOW        CLEAR     65  55  70 E12       29.75F
JORDAN           N/A     68  50  52 SE6       29.80F
SIDNEY         CLEAR     66  61  82 S3        29.81F
WOLF POINT     PTCLDY    65  60  84 NE5       29.76F HAZE
PLENTYWOOD       N/A     64  63  94 SE5       29.80F
POPLAR           N/A     68  63  83 CALM      29.78F
SCOBEY           N/A     63  57  80 SE1       29.79F
$$

MTZ028>42-056>058-040900-
SOUTHCENTRAL AND SOUTHEAST MONTANA

CITY           SKY/WX    TMP DP  RH WIND       PRES   REMARKS
BAKER          PTCLDY    63  59  87 SE7       29.86F
BILLINGS       CLEAR     71  50  47 CALM      29.86F
LIVINGSTON     PTCLDY    59  46  62 CALM      29.94S
MILES CITY     CLEAR     70  60  70 SE9       29.80F
EKALAKA          N/A     66  56  70 SE6       29.88F
FORSYTH          N/A     68  55  64 CALM      29.79F
LAUREL           N/A     70  49  47 MISG      29.86F
ROUNDUP          N/A     70  48  45 CALM      29.78F
$$

REGIONAL REPORTS...DAKOTAS

CITY           SKY/WX    TMP DP  RH WIND       PRES   REMARKS
WILLISTON      PTCLDY    72  63  73 SW5       29.81F HAZE
MINOT          CLEAR     64  61  90 CALM      29.83F FOG
DICKINSON      CLEAR     64  61  90 S8        29.85F FOG
BEACH          FAIR      64  64 100 S9        29.85F
CROSBY         FAIR      66  66 100 S9        29.81F FOG
BISMARCK       CLOUDY    65  63  93 E3        29.87F FOG
GRAND FORKS    MOCLDY    60  58  92 CALM      29.88F FOG
FARGO          CLEAR     64  60  87 S3        29.91R FOG
BUFFALO SD       N/A     65  59  81 S12       29.82F
RAPID CITY     MOCLDY    63  60  90 SE5       29.93F
$$

REGIONAL REPORTS...WYOMING/IDAHO/WASHINGTON

CITY           SKY/WX    TMP DP  RH WIND       PRES   REMARKS
GILLETTE       CLEAR     65  56  72 S9        29.93F
SHERIDAN       CLEAR     61  55  81 CALM      29.88F
BUFFALO WY     CLEAR     66  54  65 SW3       29.96F
CODY           CLEAR     70  50  49 SW7       29.97F
YELLOWSTONE LA   N/A     48  40  73 CALM      30.21S
IDAHO FALLS    PTCLDY    64  55  72 W7        29.94R
SALMON         CLEAR     61  43  51 CALM      29.94R
BOISE          MOCLDY    79  40  24 SE5       29.82S
SPOKANE        PTCLDY    78  36  21 SW9       29.79S
$$

REGIONAL REPORTS...ALBERTA

CITY           SKY/WX    TMP DP  RH WIND       PRES   REMARKS
EDMONTON       CLEAR     57  41  54 NW2       29.87S
CALGARY        PTCLDY    61  50  67 N10       29.93R
LETHBRIDGE     PTCLDY    61  55  82 SW6       29.78S
MEDICINE HAT   CLOUDY    68  57  68 S6        29.74S
WATERTON GATE    N/A     61  45  55 SW6         N/A
CARDSTON         N/A     66  46  48 SW9         N/A
MILK RIVER       N/A     61  52  72 W10         N/A
ONEFOUR          N/A     64  43  45 NE1         N/A
$$

REGIONAL REPORTS...SASKATCHEWAN

CITY           SKY/WX    TMP DP  RH WIND       PRES   REMARKS
SWIFT CURRENT  CLEAR     64  55  72 E10G18    29.75F
REGINA         LGT RAIN  66  63  88 NW16G31   29.80R
SASKATOON      CLOUDY    64  57  77 N6        29.74F
CYPRESS HILLS    N/A     66  43  42 N3          N/A
ROCKGLEN         N/A     64  57  77 S9          N/A
ASSINIBOIA       N/A     59  52  77 NW3         N/A
$$



USA.gov is the U.S. government's official web portal to all federal, state and local government web resources and services.